Year,Month,Day,Hour,Minute,Value (Times are PST for temperature in C)
2015,06,27,00,00,15.80
2015,06,27,00,01,15.70
2015,06,27,00,02,15.70
2015,06,27,00,03,15.70
2015,06,27,00,04,15.70
2015,06,27,00,05,15.70
2015,06,27,00,06,15.70
2015,06,27,00,07,15.70
2015,06,27,00,08,15.70
2015,06,27,00,09,15.70
2015,06,27,00,10,15.60
2015,06,27,00,11,15.60
2015,06,27,00,12,15.50
2015,06,27,00,13,15.50
2015,06,27,00,14,15.40
2015,06,27,00,15,15.40
2015,06,27,00,16,15.40
2015,06,27,00,17,15.40
2015,06,27,00,18,15.30
2015,06,27,00,19,15.30
2015,06,27,00,20,15.30
2015,06,27,00,21,15.40
2015,06,27,00,22,15.50
2015,06,27,00,23,15.60
2015,06,27,00,24,15.60
2015,06,27,00,25,15.60
2015,06,27,00,26,15.60
2015,06,27,00,27,15.60
2015,06,27,00,28,15.60
2015,06,27,00,29,15.70
2015,06,27,00,30,15.70
2015,06,27,00,31,15.80
2015,06,27,00,32,15.90
2015,06,27,00,33,16.10
2015,06,27,00,34,16.20
2015,06,27,00,35,16.40
2015,06,27,00,36,16.40
2015,06,27,00,37,16.40
2015,06,27,00,38,16.40
2015,06,27,00,39,16.30
2015,06,27,00,40,16.30
2015,06,27,00,41,16.20
2015,06,27,00,42,16.10
2015,06,27,00,43,16.10
2015,06,27,00,44,16.10
2015,06,27,00,45,16.00
2015,06,27,00,46,15.90
2015,06,27,00,47,15.90
2015,06,27,00,48,15.90
2015,06,27,00,49,16.00
2015,06,27,00,50,16.00
2015,06,27,00,51,16.10
2015,06,27,00,52,16.10
2015,06,27,00,53,16.10
2015,06,27,00,54,16.10
2015,06,27,00,55,16.10
2015,06,27,00,56,16.00
2015,06,27,00,57,16.00
2015,06,27,00,58,15.90
2015,06,27,00,59,15.80
2015,06,27,01,00,15.60
2015,06,27,01,01,15.60
2015,06,27,01,02,15.50
2015,06,27,01,03,15.50
2015,06,27,01,04,15.50
2015,06,27,01,05,15.40
2015,06,27,01,06,15.50
2015,06,27,01,07,15.70
2015,06,27,01,08,15.80
2015,06,27,01,09,15.80
2015,06,27,01,10,15.80
2015,06,27,01,11,15.80
2015,06,27,01,12,15.80
2015,06,27,01,13,15.80
2015,06,27,01,14,15.80
2015,06,27,01,15,15.80
2015,06,27,01,16,15.80
2015,06,27,01,17,15.90
2015,06,27,01,18,15.90
2015,06,27,01,19,15.90
2015,06,27,01,20,15.90
2015,06,27,01,21,15.90
2015,06,27,01,22,15.90
2015,06,27,01,23,15.90
2015,06,27,01,24,15.90
2015,06,27,01,25,15.90
2015,06,27,01,26,15.90
2015,06,27,01,27,15.90
2015,06,27,01,28,16.00
2015,06,27,01,29,16.10
2015,06,27,01,30,16.20
2015,06,27,01,31,16.20
2015,06,27,01,32,16.30
2015,06,27,01,33,16.30
2015,06,27,01,34,16.40
2015,06,27,01,35,16.40
2015,06,27,01,36,16.40
2015,06,27,01,37,16.50
2015,06,27,01,38,16.50
2015,06,27,01,39,16.50
2015,06,27,01,40,16.60
2015,06,27,01,41,16.60
2015,06,27,01,42,16.70
2015,06,27,01,43,16.70
2015,06,27,01,44,16.70
2015,06,27,01,45,16.60
2015,06,27,01,46,16.60
2015,06,27,01,47,16.60
2015,06,27,01,48,16.50
2015,06,27,01,49,16.50
2015,06,27,01,50,16.50
2015,06,27,01,51,16.40
2015,06,27,01,52,16.40
2015,06,27,01,53,16.40
2015,06,27,01,54,16.40
2015,06,27,01,55,16.50
2015,06,27,01,56,16.50
2015,06,27,01,57,16.50
2015,06,27,01,58,16.60
2015,06,27,01,59,16.60
2015,06,27,02,00,16.60
2015,06,27,02,01,16.70
2015,06,27,02,02,16.70
2015,06,27,02,03,16.70
2015,06,27,02,04,16.70
2015,06,27,02,05,16.70
2015,06,27,02,06,16.70
2015,06,27,02,07,16.70
2015,06,27,02,08,16.70
2015,06,27,02,09,16.70
2015,06,27,02,10,16.70
2015,06,27,02,11,16.70
2015,06,27,02,12,16.70
2015,06,27,02,13,16.70
2015,06,27,02,14,16.70
2015,06,27,02,15,16.70
2015,06,27,02,16,16.60
2015,06,27,02,17,16.60
2015,06,27,02,18,16.50
2015,06,27,02,19,16.40
2015,06,27,02,20,16.40
2015,06,27,02,21,16.30
2015,06,27,02,22,16.20
2015,06,27,02,23,16.20
2015,06,27,02,24,16.10
2015,06,27,02,25,16.10
2015,06,27,02,26,16.00
2015,06,27,02,27,15.90
2015,06,27,02,28,15.80
2015,06,27,02,29,15.80
2015,06,27,02,30,15.70
2015,06,27,02,31,15.70
2015,06,27,02,32,15.60
2015,06,27,02,33,15.60
2015,06,27,02,34,15.50
2015,06,27,02,35,15.50
2015,06,27,02,36,15.40
2015,06,27,02,37,15.40
2015,06,27,02,38,15.30
2015,06,27,02,39,15.30
2015,06,27,02,40,15.40
2015,06,27,02,41,15.50
2015,06,27,02,42,15.50
2015,06,27,02,43,15.60
2015,06,27,02,44,15.70
2015,06,27,02,45,15.70
2015,06,27,02,46,15.80
2015,06,27,02,47,15.90
2015,06,27,02,48,15.90
2015,06,27,02,49,16.00
2015,06,27,02,50,16.00
2015,06,27,02,51,16.10
2015,06,27,02,52,16.10
2015,06,27,02,53,16.10
2015,06,27,02,54,16.10
2015,06,27,02,55,16.10
2015,06,27,02,56,16.10
2015,06,27,02,57,16.00
2015,06,27,02,58,15.90
2015,06,27,02,59,15.80
2015,06,27,03,00,15.70
2015,06,27,03,01,15.50
2015,06,27,03,02,15.40
2015,06,27,03,03,15.30
2015,06,27,03,04,15.20
2015,06,27,03,05,15.10
2015,06,27,03,06,15.00
2015,06,27,03,07,15.00
2015,06,27,03,08,14.90
2015,06,27,03,09,14.90
2015,06,27,03,10,14.80
2015,06,27,03,11,14.80
2015,06,27,03,12,14.80
2015,06,27,03,13,14.70
2015,06,27,03,14,14.70
2015,06,27,03,15,14.70
2015,06,27,03,16,14.80
2015,06,27,03,17,14.80
2015,06,27,03,18,14.80
2015,06,27,03,19,14.80
2015,06,27,03,20,14.80
2015,06,27,03,21,14.80
2015,06,27,03,22,14.80
2015,06,27,03,23,14.90
2015,06,27,03,24,15.00
2015,06,27,03,25,15.00
2015,06,27,03,26,15.00
2015,06,27,03,27,15.00
2015,06,27,03,28,15.00
2015,06,27,03,29,15.00
2015,06,27,03,30,15.00
2015,06,27,03,31,14.90
2015,06,27,03,32,14.90
2015,06,27,03,33,15.00
2015,06,27,03,34,15.00
2015,06,27,03,35,15.10
2015,06,27,03,36,15.10
2015,06,27,03,37,15.10
2015,06,27,03,38,15.10
2015,06,27,03,39,15.10
2015,06,27,03,40,15.10
2015,06,27,03,41,15.20
2015,06,27,03,42,15.20
2015,06,27,03,43,15.20
2015,06,27,03,44,15.20
2015,06,27,03,45,15.20
2015,06,27,03,46,15.30
2015,06,27,03,47,15.30
2015,06,27,03,48,15.40
2015,06,27,03,49,15.40
2015,06,27,03,50,15.50
2015,06,27,03,51,15.60
2015,06,27,03,52,15.60
2015,06,27,03,53,15.60
2015,06,27,03,54,15.60
2015,06,27,03,55,15.60
2015,06,27,03,56,15.60
2015,06,27,03,57,15.60
2015,06,27,03,58,15.70
2015,06,27,03,59,15.80
2015,06,27,04,00,15.80
2015,06,27,04,01,15.90
2015,06,27,04,02,15.90
2015,06,27,04,03,16.00
2015,06,27,04,04,16.00
2015,06,27,04,05,16.10
2015,06,27,04,06,16.10
2015,06,27,04,07,16.10
2015,06,27,04,08,16.10
2015,06,27,04,09,16.10
2015,06,27,04,10,16.10
2015,06,27,04,11,16.10
2015,06,27,04,12,16.10
2015,06,27,04,13,16.10
2015,06,27,04,14,16.20
2015,06,27,04,15,16.20
2015,06,27,04,16,16.30
2015,06,27,04,17,16.30
2015,06,27,04,18,16.30
2015,06,27,04,19,16.40
2015,06,27,04,20,16.40
2015,06,27,04,21,16.40
2015,06,27,04,22,16.30
2015,06,27,04,23,16.20
2015,06,27,04,24,16.10
2015,06,27,04,25,15.90
2015,06,27,04,26,15.70
2015,06,27,04,27,15.50
2015,06,27,04,28,15.30
2015,06,27,04,29,15.10
2015,06,27,04,30,14.90
2015,06,27,04,31,14.70
2015,06,27,04,32,14.50
2015,06,27,04,33,14.40
2015,06,27,04,34,14.40
2015,06,27,04,35,14.50
2015,06,27,04,36,14.50
2015,06,27,04,37,14.40
2015,06,27,04,38,14.40
2015,06,27,04,39,14.40
2015,06,27,04,40,14.40
2015,06,27,04,41,14.30
2015,06,27,04,42,14.30
2015,06,27,04,43,14.30
2015,06,27,04,44,14.30
2015,06,27,04,45,14.30
2015,06,27,04,46,14.40
2015,06,27,04,47,14.40
2015,06,27,04,48,14.40
2015,06,27,04,49,14.50
2015,06,27,04,50,14.50
2015,06,27,04,51,14.60
2015,06,27,04,52,14.60
2015,06,27,04,53,14.70
2015,06,27,04,54,14.60
2015,06,27,04,55,14.50
2015,06,27,04,56,14.40
2015,06,27,04,57,14.30
2015,06,27,04,58,14.30
2015,06,27,04,59,14.30
2015,06,27,05,00,14.30
2015,06,27,05,01,14.20
2015,06,27,05,02,14.20
2015,06,27,05,03,14.10
2015,06,27,05,04,14.10
2015,06,27,05,05,14.00
2015,06,27,05,06,14.00
2015,06,27,05,07,13.90
2015,06,27,05,08,13.90
2015,06,27,05,09,13.90
2015,06,27,05,10,13.90
2015,06,27,05,11,13.80
2015,06,27,05,12,13.80
2015,06,27,05,13,13.80
2015,06,27,05,14,13.80
2015,06,27,05,15,13.80
2015,06,27,05,16,13.80
2015,06,27,05,17,13.80
2015,06,27,05,18,13.70
2015,06,27,05,19,13.70
2015,06,27,05,20,13.70
2015,06,27,05,21,13.70
2015,06,27,05,22,13.70
2015,06,27,05,23,13.70
2015,06,27,05,24,13.70
2015,06,27,05,25,13.70
2015,06,27,05,26,13.70
2015,06,27,05,27,13.70
2015,06,27,05,28,13.70
2015,06,27,05,29,13.70
2015,06,27,05,30,13.70
2015,06,27,05,31,13.70
2015,06,27,05,32,13.70
2015,06,27,05,33,13.70
2015,06,27,05,34,13.60
2015,06,27,05,35,13.60
2015,06,27,05,36,13.60
2015,06,27,05,37,13.60
2015,06,27,05,38,13.60
2015,06,27,05,39,13.60
2015,06,27,05,40,13.60
2015,06,27,05,41,13.60
2015,06,27,05,42,13.60
2015,06,27,05,43,13.60
2015,06,27,05,44,13.60
2015,06,27,05,45,13.60
2015,06,27,05,46,13.60
2015,06,27,05,47,13.60
2015,06,27,05,48,13.60
2015,06,27,05,49,13.60
2015,06,27,05,50,13.60
2015,06,27,05,51,13.60
2015,06,27,05,52,13.60
2015,06,27,05,53,13.60
2015,06,27,05,54,13.50
2015,06,27,05,55,13.50
2015,06,27,05,56,13.50
2015,06,27,05,57,13.50
2015,06,27,05,58,13.40
2015,06,27,05,59,13.40
2015,06,27,06,00,13.40
2015,06,27,06,01,13.40
2015,06,27,06,02,13.40
2015,06,27,06,03,13.40
2015,06,27,06,04,13.40
2015,06,27,06,05,13.50
2015,06,27,06,06,13.50
2015,06,27,06,07,13.50
2015,06,27,06,08,13.50
2015,06,27,06,09,13.50
2015,06,27,06,10,13.60
2015,06,27,06,11,13.60
2015,06,27,06,12,13.70
2015,06,27,06,13,13.70
2015,06,27,06,14,13.80
2015,06,27,06,15,13.90
2015,06,27,06,16,13.90
2015,06,27,06,17,14.00
2015,06,27,06,18,14.00
2015,06,27,06,19,14.10
2015,06,27,06,20,14.10
2015,06,27,06,21,14.20
2015,06,27,06,22,14.10
2015,06,27,06,23,14.10
2015,06,27,06,24,14.10
2015,06,27,06,25,14.10
2015,06,27,06,26,14.10
2015,06,27,06,27,14.10
2015,06,27,06,28,14.10
2015,06,27,06,29,14.10
2015,06,27,06,30,14.10
2015,06,27,06,31,14.10
2015,06,27,06,32,14.10
2015,06,27,06,33,14.00
2015,06,27,06,34,14.00
2015,06,27,06,35,14.00
2015,06,27,06,36,14.00
2015,06,27,06,37,14.10
2015,06,27,06,38,14.20
2015,06,27,06,39,14.20
2015,06,27,06,40,14.30
2015,06,27,06,41,14.40
2015,06,27,06,42,14.40
2015,06,27,06,43,14.40
2015,06,27,06,44,14.40
2015,06,27,06,45,14.50
2015,06,27,06,46,14.60
2015,06,27,06,47,14.60
2015,06,27,06,48,14.70
2015,06,27,06,49,14.80
2015,06,27,06,50,14.80
2015,06,27,06,51,14.90
2015,06,27,06,52,15.00
2015,06,27,06,53,15.10
2015,06,27,06,54,15.20
2015,06,27,06,55,15.30
2015,06,27,06,56,15.30
2015,06,27,06,57,15.40
2015,06,27,06,58,15.50
2015,06,27,06,59,15.60
2015,06,27,07,00,15.60
2015,06,27,07,01,15.70
2015,06,27,07,02,15.70
2015,06,27,07,03,15.80
2015,06,27,07,04,15.90
2015,06,27,07,05,15.90
2015,06,27,07,06,15.90
2015,06,27,07,07,16.00
2015,06,27,07,08,16.00
2015,06,27,07,09,16.10
2015,06,27,07,10,16.10
2015,06,27,07,11,16.20
2015,06,27,07,12,16.20
2015,06,27,07,13,16.30
2015,06,27,07,14,16.30
2015,06,27,07,15,16.40
2015,06,27,07,16,16.40
2015,06,27,07,17,16.40
2015,06,27,07,18,16.40
2015,06,27,07,19,16.40
2015,06,27,07,20,16.30
2015,06,27,07,21,16.30
2015,06,27,07,22,16.30
2015,06,27,07,23,16.30
2015,06,27,07,24,16.30
2015,06,27,07,25,16.30
2015,06,27,07,26,16.30
2015,06,27,07,27,16.40
2015,06,27,07,28,16.50
2015,06,27,07,29,16.60
2015,06,27,07,30,16.70
2015,06,27,07,31,16.80
2015,06,27,07,32,16.90
2015,06,27,07,33,17.00
2015,06,27,07,34,17.00
2015,06,27,07,35,17.10
2015,06,27,07,36,17.20
2015,06,27,07,37,17.30
2015,06,27,07,38,17.40
2015,06,27,07,39,17.40
2015,06,27,07,40,17.50
2015,06,27,07,41,17.60
2015,06,27,07,42,17.60
2015,06,27,07,43,17.70
2015,06,27,07,44,17.70
2015,06,27,07,45,17.80
2015,06,27,07,46,17.80
2015,06,27,07,47,17.90
2015,06,27,07,48,18.00
2015,06,27,07,49,18.00
2015,06,27,07,50,18.00
2015,06,27,07,51,18.00
2015,06,27,07,52,18.00
2015,06,27,07,53,18.00
2015,06,27,07,54,17.90
2015,06,27,07,55,17.90
2015,06,27,07,56,17.90
2015,06,27,07,57,17.90
2015,06,27,07,58,17.90
2015,06,27,07,59,17.80
2015,06,27,08,00,17.80
2015,06,27,08,01,17.80
2015,06,27,08,02,17.70
2015,06,27,08,03,17.70
2015,06,27,08,04,17.70
2015,06,27,08,05,17.70
2015,06,27,08,06,17.60
2015,06,27,08,07,17.50
2015,06,27,08,08,17.40
2015,06,27,08,09,17.20
2015,06,27,08,10,17.10
2015,06,27,08,11,17.00
2015,06,27,08,12,16.80
2015,06,27,08,13,16.70
2015,06,27,08,14,16.70
2015,06,27,08,15,16.60
2015,06,27,08,16,16.60
2015,06,27,08,17,16.50
2015,06,27,08,18,16.50
2015,06,27,08,19,16.50
2015,06,27,08,20,16.50
2015,06,27,08,21,16.60
2015,06,27,08,22,16.60
2015,06,27,08,23,16.60
2015,06,27,08,24,16.60
2015,06,27,08,25,16.50
2015,06,27,08,26,16.40
2015,06,27,08,27,16.40
2015,06,27,08,28,16.30
2015,06,27,08,29,16.20
2015,06,27,08,30,16.20
2015,06,27,08,31,16.10
2015,06,27,08,32,16.20
2015,06,27,08,33,16.20
2015,06,27,08,34,16.00
2015,06,27,08,35,15.90
2015,06,27,08,36,15.70
2015,06,27,08,37,15.50
2015,06,27,08,38,15.40
2015,06,27,08,39,15.30
2015,06,27,08,40,15.30
2015,06,27,08,41,15.30
2015,06,27,08,42,15.30
2015,06,27,08,43,15.40
2015,06,27,08,44,15.50
2015,06,27,08,45,15.60
2015,06,27,08,46,15.70
2015,06,27,08,47,15.80
2015,06,27,08,48,15.80
2015,06,27,08,49,15.90
2015,06,27,08,50,16.00
2015,06,27,08,51,16.10
2015,06,27,08,52,16.20
2015,06,27,08,53,16.30
2015,06,27,08,54,16.40
2015,06,27,08,55,16.60
2015,06,27,08,56,16.70
2015,06,27,08,57,16.80
2015,06,27,08,58,16.80
2015,06,27,08,59,16.90
2015,06,27,09,00,16.90
2015,06,27,09,01,16.90
2015,06,27,09,02,16.90
2015,06,27,09,03,16.90
2015,06,27,09,04,16.80
2015,06,27,09,05,16.80
2015,06,27,09,06,16.70
2015,06,27,09,07,16.60
2015,06,27,09,08,16.60
2015,06,27,09,09,16.60
2015,06,27,09,10,16.60
2015,06,27,09,11,16.60
2015,06,27,09,12,16.70
2015,06,27,09,13,16.80
2015,06,27,09,14,16.90
2015,06,27,09,15,17.10
2015,06,27,09,16,17.20
2015,06,27,09,17,17.30
2015,06,27,09,18,17.30
2015,06,27,09,19,17.40
2015,06,27,09,20,17.50
2015,06,27,09,21,17.60
2015,06,27,09,22,17.70
2015,06,27,09,23,17.70
2015,06,27,09,24,17.80
2015,06,27,09,25,17.80
2015,06,27,09,26,17.80
2015,06,27,09,27,17.90
2015,06,27,09,28,18.00
2015,06,27,09,29,18.00
2015,06,27,09,30,18.10
2015,06,27,09,31,18.00
2015,06,27,09,32,17.90
2015,06,27,09,33,17.50
2015,06,27,09,34,17.10
2015,06,27,09,35,16.60
2015,06,27,09,36,16.20
2015,06,27,09,37,15.90
2015,06,27,09,38,15.50
2015,06,27,09,39,15.00
2015,06,27,09,40,14.60
2015,06,27,09,41,14.20
2015,06,27,09,42,13.80
2015,06,27,09,43,13.60
2015,06,27,09,44,13.40
2015,06,27,09,45,13.30
2015,06,27,09,46,13.30
2015,06,27,09,47,13.30
2015,06,27,09,48,13.20
2015,06,27,09,49,13.20
2015,06,27,09,50,13.10
2015,06,27,09,51,13.10
2015,06,27,09,52,13.10
2015,06,27,09,53,13.10
2015,06,27,09,54,13.10
2015,06,27,09,55,13.00
2015,06,27,09,56,12.90
2015,06,27,09,57,12.90
2015,06,27,09,58,12.80
2015,06,27,09,59,12.80
2015,06,27,10,00,12.80
2015,06,27,10,01,12.80
2015,06,27,10,02,12.80
2015,06,27,10,03,12.80
2015,06,27,10,04,12.80
2015,06,27,10,05,12.90
2015,06,27,10,06,12.90
2015,06,27,10,07,13.00
2015,06,27,10,08,13.10
2015,06,27,10,09,13.30
2015,06,27,10,10,13.40
2015,06,27,10,11,13.60
2015,06,27,10,12,14.00
2015,06,27,10,13,14.50
2015,06,27,10,14,14.80
2015,06,27,10,15,15.10
2015,06,27,10,16,15.30
2015,06,27,10,17,15.50
2015,06,27,10,18,15.70
2015,06,27,10,19,15.70
2015,06,27,10,20,15.70
2015,06,27,10,21,15.80
2015,06,27,10,22,15.90
2015,06,27,10,23,16.00
2015,06,27,10,24,16.10
2015,06,27,10,25,16.20
2015,06,27,10,26,16.40
2015,06,27,10,27,16.50
2015,06,27,10,28,16.60
2015,06,27,10,29,16.70
2015,06,27,10,30,16.80
2015,06,27,10,31,16.90
2015,06,27,10,32,16.90
2015,06,27,10,33,17.00
2015,06,27,10,34,17.00
2015,06,27,10,35,16.90
2015,06,27,10,36,16.70
2015,06,27,10,37,16.60
2015,06,27,10,38,16.60
2015,06,27,10,39,16.60
2015,06,27,10,40,16.70
2015,06,27,10,41,16.80
2015,06,27,10,42,16.90
2015,06,27,10,43,17.00
2015,06,27,10,44,17.20
2015,06,27,10,45,17.30
2015,06,27,10,46,17.40
2015,06,27,10,47,17.50
2015,06,27,10,48,17.70
2015,06,27,10,49,17.80
2015,06,27,10,50,18.00
2015,06,27,10,51,18.10
2015,06,27,10,52,18.20
2015,06,27,10,53,18.30
2015,06,27,10,54,18.40
2015,06,27,10,55,18.50
2015,06,27,10,56,18.60
2015,06,27,10,57,18.70
2015,06,27,10,58,18.70
2015,06,27,10,59,18.80
2015,06,27,11,00,18.90
2015,06,27,11,01,18.90
2015,06,27,11,02,19.00
2015,06,27,11,03,19.00
2015,06,27,11,04,19.10
2015,06,27,11,05,19.10
2015,06,27,11,06,19.20
2015,06,27,11,07,19.30
2015,06,27,11,08,19.30
2015,06,27,11,09,19.10
2015,06,27,11,10,19.10
2015,06,27,11,11,19.00
2015,06,27,11,12,18.90
2015,06,27,11,13,18.90
2015,06,27,11,14,18.90
2015,06,27,11,15,19.00
2015,06,27,11,16,19.10
2015,06,27,11,17,19.20
2015,06,27,11,18,19.30
2015,06,27,11,19,19.30
2015,06,27,11,20,19.30
2015,06,27,11,21,19.40
2015,06,27,11,22,19.40
2015,06,27,11,23,19.40
2015,06,27,11,24,19.40
2015,06,27,11,25,19.40
2015,06,27,11,26,19.40
2015,06,27,11,27,19.40
2015,06,27,11,28,19.40
2015,06,27,11,29,19.30
2015,06,27,11,30,19.20
2015,06,27,11,31,19.00
2015,06,27,11,32,18.90
2015,06,27,11,33,18.80
2015,06,27,11,34,18.80
2015,06,27,11,35,18.80
2015,06,27,11,36,18.80
2015,06,27,11,37,18.80
2015,06,27,11,38,18.80
2015,06,27,11,39,18.80
2015,06,27,11,40,18.90
2015,06,27,11,41,18.90
2015,06,27,11,42,18.90
2015,06,27,11,43,18.80
2015,06,27,11,44,18.90
2015,06,27,11,45,18.90
2015,06,27,11,46,19.00
2015,06,27,11,47,19.10
2015,06,27,11,48,19.20
2015,06,27,11,49,19.30
2015,06,27,11,50,19.30
2015,06,27,11,51,19.30
2015,06,27,11,52,19.30
2015,06,27,11,53,19.40
2015,06,27,11,54,19.40
2015,06,27,11,55,19.50
2015,06,27,11,56,19.60
2015,06,27,11,57,19.50
2015,06,27,11,58,19.50
2015,06,27,11,59,19.40
2015,06,27,12,00,19.30
2015,06,27,12,01,19.20
2015,06,27,12,02,19.20
2015,06,27,12,03,19.20
2015,06,27,12,04,19.20
2015,06,27,12,05,19.20
2015,06,27,12,06,19.20
2015,06,27,12,07,19.30
2015,06,27,12,08,19.30
2015,06,27,12,09,19.30
2015,06,27,12,10,19.20
2015,06,27,12,11,19.20
2015,06,27,12,12,19.10
2015,06,27,12,13,19.10
2015,06,27,12,14,19.20
2015,06,27,12,15,19.20
2015,06,27,12,16,19.20
2015,06,27,12,17,19.30
2015,06,27,12,18,19.40
2015,06,27,12,19,19.50
2015,06,27,12,20,19.60
2015,06,27,12,21,19.60
2015,06,27,12,22,19.70
2015,06,27,12,23,19.70
2015,06,27,12,24,19.70
2015,06,27,12,25,19.70
2015,06,27,12,26,19.60
2015,06,27,12,27,19.50
2015,06,27,12,28,19.50
2015,06,27,12,29,19.40
2015,06,27,12,30,19.30
2015,06,27,12,31,19.30
2015,06,27,12,32,19.40
2015,06,27,12,33,19.40
2015,06,27,12,34,19.40
2015,06,27,12,35,19.50
2015,06,27,12,36,19.50
2015,06,27,12,37,19.50
2015,06,27,12,38,19.50
2015,06,27,12,39,19.50
2015,06,27,12,40,19.50
2015,06,27,12,41,19.50
2015,06,27,12,42,19.60
2015,06,27,12,43,19.60
2015,06,27,12,44,19.70
2015,06,27,12,45,19.70
2015,06,27,12,46,19.80
2015,06,27,12,47,19.90
2015,06,27,12,48,19.90
2015,06,27,12,49,20.00
2015,06,27,12,50,20.00
2015,06,27,12,51,20.00
2015,06,27,12,52,20.00
2015,06,27,12,53,20.10
2015,06,27,12,54,20.10
2015,06,27,12,55,20.20
2015,06,27,12,56,20.20
2015,06,27,12,57,20.30
2015,06,27,12,58,20.30
2015,06,27,12,59,20.40
2015,06,27,13,00,20.50
2015,06,27,13,01,20.50
2015,06,27,13,02,20.60
2015,06,27,13,03,20.60
2015,06,27,13,04,20.70
2015,06,27,13,05,20.70
2015,06,27,13,06,20.80
2015,06,27,13,07,20.80
2015,06,27,13,08,20.80
2015,06,27,13,09,20.80
2015,06,27,13,10,20.80
2015,06,27,13,11,20.80
2015,06,27,13,12,20.80
2015,06,27,13,13,20.80
2015,06,27,13,14,20.80
2015,06,27,13,15,20.80
2015,06,27,13,16,20.80
2015,06,27,13,17,20.80
2015,06,27,13,18,20.80
2015,06,27,13,19,20.70
2015,06,27,13,20,20.50
2015,06,27,13,21,20.20
2015,06,27,13,22,20.00
2015,06,27,13,23,19.80
2015,06,27,13,24,19.50
2015,06,27,13,25,19.20
2015,06,27,13,26,18.80
2015,06,27,13,27,18.50
2015,06,27,13,28,18.40
2015,06,27,13,29,18.30
2015,06,27,13,30,18.40
2015,06,27,13,31,18.50
2015,06,27,13,32,18.60
2015,06,27,13,33,18.60
2015,06,27,13,34,18.40
2015,06,27,13,35,18.30
2015,06,27,13,36,18.20
2015,06,27,13,37,18.10
2015,06,27,13,38,18.10
2015,06,27,13,39,18.20
2015,06,27,13,40,18.40
2015,06,27,13,41,18.60
2015,06,27,13,42,18.70
2015,06,27,13,43,18.60
2015,06,27,13,44,18.40
2015,06,27,13,45,18.30
2015,06,27,13,46,18.30
2015,06,27,13,47,18.40
2015,06,27,13,48,18.60
2015,06,27,13,49,18.70
2015,06,27,13,50,18.90
2015,06,27,13,51,19.00
2015,06,27,13,52,19.20
2015,06,27,13,53,19.30
2015,06,27,13,54,19.30
2015,06,27,13,55,19.40
2015,06,27,13,56,19.30
2015,06,27,13,57,19.20
2015,06,27,13,58,19.10
2015,06,27,13,59,19.00
2015,06,27,14,00,18.80
2015,06,27,14,01,18.60
2015,06,27,14,02,18.40
2015,06,27,14,03,18.30
2015,06,27,14,04,18.10
2015,06,27,14,05,18.00
2015,06,27,14,06,17.80
2015,06,27,14,07,17.70
2015,06,27,14,08,17.60
2015,06,27,14,09,17.60
2015,06,27,14,10,17.50
2015,06,27,14,11,17.60
2015,06,27,14,12,17.60
2015,06,27,14,13,17.60
2015,06,27,14,14,17.60
2015,06,27,14,15,17.60
2015,06,27,14,16,17.60
2015,06,27,14,17,17.60
2015,06,27,14,18,17.70
2015,06,27,14,19,17.80
2015,06,27,14,20,17.90
2015,06,27,14,21,17.90
2015,06,27,14,22,17.90
2015,06,27,14,23,17.90
2015,06,27,14,24,18.00
2015,06,27,14,25,18.00
2015,06,27,14,26,18.00
2015,06,27,14,27,18.00
2015,06,27,14,28,18.00
2015,06,27,14,29,18.00
2015,06,27,14,30,18.00
2015,06,27,14,31,18.00
2015,06,27,14,32,18.10
2015,06,27,14,33,18.10
2015,06,27,14,34,18.30
2015,06,27,14,35,18.40
2015,06,27,14,36,18.50
2015,06,27,14,37,18.60
2015,06,27,14,38,18.70
2015,06,27,14,39,18.90
2015,06,27,14,40,19.00
2015,06,27,14,41,19.00
2015,06,27,14,42,19.00
2015,06,27,14,43,19.10
2015,06,27,14,44,19.30
2015,06,27,14,45,19.40
2015,06,27,14,46,19.40
2015,06,27,14,47,19.40
2015,06,27,14,48,19.30
2015,06,27,14,49,19.20
2015,06,27,14,50,19.10
2015,06,27,14,51,19.00
2015,06,27,14,52,18.90
2015,06,27,14,53,18.90
2015,06,27,14,54,18.90
2015,06,27,14,55,18.90
2015,06,27,14,56,18.90
2015,06,27,14,57,18.90
2015,06,27,14,58,19.00
2015,06,27,14,59,19.00
2015,06,27,15,00,19.10
2015,06,27,15,01,19.10
2015,06,27,15,02,19.10
2015,06,27,15,03,19.00
2015,06,27,15,04,19.00
2015,06,27,15,05,19.00
2015,06,27,15,06,19.10
2015,06,27,15,07,19.10
2015,06,27,15,08,19.20
2015,06,27,15,09,19.30
2015,06,27,15,10,19.30
2015,06,27,15,11,19.40
2015,06,27,15,12,19.40
2015,06,27,15,13,19.50
2015,06,27,15,14,19.60
2015,06,27,15,15,19.70
2015,06,27,15,16,19.80
2015,06,27,15,17,19.80
2015,06,27,15,18,19.90
2015,06,27,15,19,20.10
2015,06,27,15,20,20.20
2015,06,27,15,21,20.40
2015,06,27,15,22,20.50
2015,06,27,15,23,20.70
2015,06,27,15,24,20.90
2015,06,27,15,25,21.10
2015,06,27,15,26,21.20
2015,06,27,15,27,21.30
2015,06,27,15,28,21.40
2015,06,27,15,29,21.40
2015,06,27,15,30,21.30
2015,06,27,15,31,21.20
2015,06,27,15,32,21.10
2015,06,27,15,33,21.00
2015,06,27,15,34,21.00
2015,06,27,15,35,21.10
2015,06,27,15,36,21.20
2015,06,27,15,37,21.30
2015,06,27,15,38,21.40
2015,06,27,15,39,21.40
2015,06,27,15,40,21.40
2015,06,27,15,41,21.40
2015,06,27,15,42,21.40
2015,06,27,15,43,21.40
2015,06,27,15,44,21.40
2015,06,27,15,45,21.50
2015,06,27,15,46,21.60
2015,06,27,15,47,21.70
2015,06,27,15,48,21.80
2015,06,27,15,49,22.00
2015,06,27,15,50,22.10
2015,06,27,15,51,22.30
2015,06,27,15,52,22.60
2015,06,27,15,53,22.80
2015,06,27,15,54,23.00
2015,06,27,15,55,23.10
2015,06,27,15,56,23.00
2015,06,27,15,57,22.90
2015,06,27,15,58,22.90
2015,06,27,15,59,22.80
2015,06,27,16,00,22.80
2015,06,27,16,01,22.80
2015,06,27,16,02,22.80
2015,06,27,16,03,22.80
2015,06,27,16,04,22.80
2015,06,27,16,05,22.80
2015,06,27,16,06,22.80
2015,06,27,16,07,22.80
2015,06,27,16,08,22.90
2015,06,27,16,09,22.90
2015,06,27,16,10,23.10
2015,06,27,16,11,23.20
2015,06,27,16,12,23.30
2015,06,27,16,13,23.40
2015,06,27,16,14,23.50
2015,06,27,16,15,23.50
2015,06,27,16,16,23.50
2015,06,27,16,17,23.40
2015,06,27,16,18,23.40
2015,06,27,16,19,23.40
2015,06,27,16,20,23.30
2015,06,27,16,21,23.30
2015,06,27,16,22,23.30
2015,06,27,16,23,23.30
2015,06,27,16,24,23.30
2015,06,27,16,25,23.30
2015,06,27,16,26,23.30
2015,06,27,16,27,23.30
2015,06,27,16,28,23.10
2015,06,27,16,29,22.90
2015,06,27,16,30,22.80
2015,06,27,16,31,22.60
2015,06,27,16,32,22.50
2015,06,27,16,33,22.40
2015,06,27,16,34,22.30
2015,06,27,16,35,22.20
2015,06,27,16,36,22.10
2015,06,27,16,37,22.10
2015,06,27,16,38,22.00
2015,06,27,16,39,21.90
2015,06,27,16,40,21.90
2015,06,27,16,41,21.80
2015,06,27,16,42,21.80
2015,06,27,16,43,21.80
2015,06,27,16,44,21.80
2015,06,27,16,45,21.80
2015,06,27,16,46,21.80
2015,06,27,16,47,21.80
2015,06,27,16,48,21.80
2015,06,27,16,49,21.70
2015,06,27,16,50,21.40
2015,06,27,16,51,21.30
2015,06,27,16,52,21.30
2015,06,27,16,53,21.20
2015,06,27,16,54,21.20
2015,06,27,16,55,21.20
2015,06,27,16,56,21.30
2015,06,27,16,57,21.30
2015,06,27,16,58,21.40
2015,06,27,16,59,21.50
2015,06,27,17,00,21.60
2015,06,27,17,01,21.60
2015,06,27,17,02,21.70
2015,06,27,17,03,21.80
2015,06,27,17,04,21.80
2015,06,27,17,05,21.90
2015,06,27,17,06,21.90
2015,06,27,17,07,21.80
2015,06,27,17,08,21.70
2015,06,27,17,09,21.60
2015,06,27,17,10,21.50
2015,06,27,17,11,21.40
2015,06,27,17,12,21.40
2015,06,27,17,13,21.40
2015,06,27,17,14,21.30
2015,06,27,17,15,21.20
2015,06,27,17,16,21.20
2015,06,27,17,17,21.20
2015,06,27,17,18,21.30
2015,06,27,17,19,21.30